• In Uzbekistan
  • List of Countries
  • For 7 days
  • Water Temperature
  • Satellite Maps
  • Weather Map
  • Weather Widgets
  • user-avatar
    Login

    Hourly Weather Villepinte

    Today, 24 January, Wednesday

    Time Temperature Precipitation Wind Pressure Humidity
    00:00 +11°C° 0 mm 4 mps 761 mmHg 92%
    01:00 +10°C° 0 mm 5 mps 760 mmHg 92%
    02:00 +10°C° 0 mm 5 mps 760 mmHg 92%
    03:00 +10°C° 0 mm 6 mps 759 mmHg 92%
    04:00 +10°C° 0 mm 6 mps 759 mmHg 91%
    05:00 +10°C° 0 mm 6 mps 759 mmHg 91%
    06:00 +10°C° 0 mm 6 mps 758 mmHg 90%
    07:00 +10°C° 0 mm 7 mps 758 mmHg 89%
    08:00 +10°C° 0 mm 7 mps 758 mmHg 88%
    09:00 +10°C° 0 mm 7 mps 758 mmHg 87%
    10:00 +10°C° 0 mm 7 mps 758 mmHg 85%
    11:00 +10°C° 0 mm 8 mps 757 mmHg 84%
    12:00 +10°C° 0 mm 8 mps 757 mmHg 82%
    13:00 +10°C° 0 mm 8 mps 756 mmHg 81%
    14:00 +10°C° 0 mm 8 mps 756 mmHg 80%
    15:00 +10°C° 0 mm 8 mps 755 mmHg 79%
    16:00 +10°C° 0 mm 8 mps 755 mmHg 79%
    17:00 +10°C° 0 mm 8 mps 755 mmHg 80%
    18:00 +10°C° 0 mm 8 mps 754 mmHg 81%
    19:00 +10°C° 0.1 mm 8 mps 754 mmHg 82%
    20:00 +10°C° 0.1 mm 8 mps 754 mmHg 82%
    21:00 +10°C° 0.1 mm 8 mps 754 mmHg 83%
    22:00 +10°C° 0.6 mm 7 mps 755 mmHg 84%
    23:00 +10°C° 0.6 mm 6 mps 755 mmHg 86%

    Tomorrow, 25 January, Thursday

    Time Temperature Precipitation Wind Pressure Humidity
    00:00 +10°C° 0.6 mm 6 mps 755 mmHg 88%
    01:00 +10°C° 0.2 mm 5 mps 755 mmHg 87%
    02:00 +9°C° 0.2 mm 5 mps 755 mmHg 86%
    03:00 +10°C° 0.2 mm 4 mps 754 mmHg 85%
    04:00 +8°C° 0.2 mm 4 mps 754 mmHg 86%
    05:00 +9°C° 0.2 mm 3 mps 754 mmHg 87%
    06:00 +9°C° 0.2 mm 3 mps 754 mmHg 87%
    07:00 +8°C° 0.8 mm 3 mps 754 mmHg 88%
    08:00 +8°C° 0.8 mm 3 mps 754 mmHg 89%
    09:00 +8°C° 0.8 mm 3 mps 754 mmHg 89%
    10:00 +8°C° 0.6 mm 3 mps 753 mmHg 87%
    11:00 +8°C° 0.6 mm 3 mps 753 mmHg 86%
    12:00 +8°C° 0.6 mm 3 mps 753 mmHg 84%
    13:00 +8°C° 0.3 mm 3 mps 753 mmHg 84%
    14:00 +8°C° 0.3 mm 3 mps 753 mmHg 83%
    15:00 +8°C° 0.3 mm 3 mps 753 mmHg 82%
    16:00 +8°C° 0.1 mm 3 mps 753 mmHg 84%
    17:00 +7°C° 0.1 mm 2 mps 754 mmHg 86%
    18:00 +7°C° 0.1 mm 2 mps 754 mmHg 87%
    19:00 +7°C° 0 mm 2 mps 754 mmHg 88%
    20:00 +6°C° 0 mm 2 mps 754 mmHg 88%
    21:00 +6°C° 0 mm 2 mps 755 mmHg 89%
    22:00 +6°C° 0 mm 2 mps 755 mmHg 89%
    23:00 +5°C° 0 mm 2 mps 755 mmHg 89%

    Day after tomorrow, 26 January, Friday

    Time Temperature Precipitation Wind Pressure Humidity
    00:00 +5°C° 0 mm 2 mps 755 mmHg 89%
    01:00 +5°C° 0 mm 2 mps 755 mmHg 89%
    02:00 +4°C° 0 mm 2 mps 755 mmHg 89%
    03:00 +4°C° 0 mm 2 mps 755 mmHg 89%
    04:00 +4°C° 0 mm 2 mps 755 mmHg 89%
    05:00 +4°C° 0 mm 2 mps 756 mmHg 89%
    06:00 +4°C° 0 mm 2 mps 756 mmHg 89%
    07:00 +4°C° 0 mm 2 mps 756 mmHg 88%
    08:00 +3°C° 0 mm 3 mps 757 mmHg 86%
    09:00 +3°C° 0 mm 3 mps 757 mmHg 85%
    10:00 +4°C° 0 mm 3 mps 757 mmHg 82%
    11:00 +5°C° 0 mm 3 mps 757 mmHg 79%
    12:00 +8°C° 0 mm 3 mps 758 mmHg 75%
    13:00 +8°C° 0 mm 3 mps 758 mmHg 74%
    14:00 +8°C° 0 mm 3 mps 758 mmHg 72%
    15:00 +9°C° 0 mm 3 mps 758 mmHg 71%
    16:00 +8°C° 0 mm 3 mps 759 mmHg 76%
    17:00 +6°C° 0 mm 2 mps 759 mmHg 80%
    18:00 +5°C° 0 mm 2 mps 760 mmHg 85%
    19:00 +5°C° 0 mm 2 mps 761 mmHg 85%
    20:00 +5°C° 0 mm 2 mps 761 mmHg 86%
    21:00 +4°C° 0 mm 3 mps 762 mmHg 86%
    22:00 +5°C° 0 mm 2 mps 762 mmHg 85%
    23:00 +5°C° 0 mm 2 mps 763 mmHg 85%

    27 January, Saturday

    Time Temperature Precipitation Wind Pressure Humidity
    00:00 +5°C° 0 mm 2 mps 763 mmHg 84%
    01:00 +4°C° 0 mm 2 mps 763 mmHg 85%
    02:00 +4°C° 0 mm 2 mps 764 mmHg 87%
    03:00 +4°C° 0 mm 2 mps 764 mmHg 88%
    04:00 +3°C° 0 mm 2 mps 764 mmHg 89%
    05:00 +4°C° 0 mm 1 mps 765 mmHg 90%
    06:00 +3°C° 0 mm 1 mps 765 mmHg 91%
    07:00 +4°C° 0 mm 1 mps 766 mmHg 90%
    08:00 +4°C° 0 mm 1 mps 767 mmHg 89%
    09:00 +4°C° 0 mm 0 mps 767 mmHg 87%
    10:00 +6°C° 0 mm 1 mps 767 mmHg 82%
    11:00 +7°C° 0 mm 1 mps 768 mmHg 77%
    12:00 +8°C° 0 mm 1 mps 768 mmHg 72%
    13:00 +9°C° 0 mm 1 mps 768 mmHg 70%
    14:00 +9°C° 0 mm 1 mps 768 mmHg 69%
    15:00 +9°C° 0 mm 1 mps 768 mmHg 67%
    16:00 +8°C° 0 mm 1 mps 768 mmHg 71%
    17:00 +6°C° 0 mm 2 mps 768 mmHg 75%
    18:00 +5°C° 0 mm 2 mps 769 mmHg 80%
    19:00 +5°C° 0 mm 2 mps 769 mmHg 81%
    20:00 +4°C° 0 mm 2 mps 769 mmHg 83%
    21:00 +4°C° 0 mm 2 mps 770 mmHg 84%
    22:00 +3°C° 0 mm 3 mps 770 mmHg 84%
    23:00 +3°C° 0 mm 3 mps 770 mmHg 84%

    28 January, Sunday

    Time Temperature Precipitation Wind Pressure Humidity
    00:00 +3°C° 0 mm 3 mps 770 mmHg 84%
    01:00 +4°C° 0 mm 3 mps 770 mmHg 85%
    02:00 +4°C° 0 mm 3 mps 770 mmHg 85%
    03:00 +4°C° 0 mm 3 mps 770 mmHg 85%
    04:00 +4°C° 0 mm 3 mps 770 mmHg 86%
    05:00 +4°C° 0 mm 3 mps 770 mmHg 87%
    06:00 +5°C° 0 mm 3 mps 771 mmHg 88%
    07:00 +5°C° 0.1 mm 3 mps 771 mmHg 89%
    08:00 +5°C° 0.1 mm 3 mps 771 mmHg 90%
    09:00 +5°C° 0.1 mm 3 mps 772 mmHg 91%
    10:00 +7°C° 0.1 mm 3 mps 772 mmHg 91%
    11:00 +7°C° 0.1 mm 3 mps 772 mmHg 90%
    12:00 +8°C° 0.1 mm 2 mps 772 mmHg 90%
    13:00 +8°C° 0 mm 2 mps 772 mmHg 91%
    14:00 +8°C° 0 mm 2 mps 771 mmHg 91%
    15:00 +9°C° 0 mm 2 mps 771 mmHg 92%
    16:00 +8°C° 0 mm 2 mps 771 mmHg 93%
    17:00 +9°C° 0 mm 1 mps 772 mmHg 94%
    18:00 +9°C° 0 mm 1 mps 772 mmHg 96%
    19:00 +9°C° 0 mm 1 mps 772 mmHg 96%
    20:00 +9°C° 0 mm 1 mps 772 mmHg 96%
    21:00 +9°C° 0 mm 1 mps 772 mmHg 96%
    22:00 +9°C° 0 mm 1 mps 772 mmHg 96%
    23:00 +9°C° 0 mm 1 mps 772 mmHg 96%

    29 January, Monday

    Time Temperature Precipitation Wind Pressure Humidity
    00:00 +10°C° 0 mm 1 mps 772 mmHg 96%
    01:00 +10°C° 0 mm 1 mps 772 mmHg 96%
    02:00 +10°C° 0 mm 1 mps 771 mmHg 96%
    03:00 +10°C° 0 mm 1 mps 771 mmHg 96%
    04:00 +10°C° 0 mm 1 mps 771 mmHg 96%
    05:00 +9°C° 0 mm 2 mps 771 mmHg 96%
    06:00 +8°C° 0 mm 2 mps 771 mmHg 96%
    07:00 +9°C° 0 mm 2 mps 771 mmHg 95%
    08:00 +9°C° 0 mm 2 mps 771 mmHg 95%
    09:00 +9°C° 0 mm 2 mps 771 mmHg 94%
    10:00 +9°C° 0 mm 2 mps 771 mmHg 93%
    11:00 +9°C° 0 mm 2 mps 771 mmHg 92%
    12:00 +10°C° 0 mm 2 mps 771 mmHg 91%
    13:00 +10°C° 0 mm 2 mps 770 mmHg 91%
    14:00 +10°C° 0 mm 2 mps 770 mmHg 90%
    15:00 +10°C° 0 mm 2 mps 769 mmHg 90%
    16:00 +10°C° 0 mm 2 mps 769 mmHg 90%
    17:00 +9°C° 0 mm 2 mps 769 mmHg 91%
    18:00 +9°C° 0 mm 2 mps 769 mmHg 91%
    19:00 +9°C° 0 mm 2 mps 768 mmHg 90%
    20:00 +9°C° 0 mm 2 mps 768 mmHg 90%
    21:00 +9°C° 0 mm 2 mps 768 mmHg 89%
    22:00 +9°C° 0 mm 2 mps 767 mmHg 89%
    23:00 +9°C° 0 mm 2 mps 767 mmHg 88%
    Show more